EW9479 Weather Reports


Display with metric or nautical units.
time (UTC)temp
F
wind
direction
speed
MPH
gust
MPH
rain 1hr
in
rain 24hr
in
rain mn
in
humidity
%
barometer
mb
20260905144552 91 227 0.0 2.0 0.00 0.00 0.00 66 1016.0
20260905143047 90 162 1.0 2.0 0.00 0.00 0.00 69 1016.0
20260905141545 88 89 0.0 1.0 0.00 0.00 0.00 72 1016.0
20260905140053 87 0 0.0 2.0 0.00 0.00 0.00 74 1016.0
20260905134555 86 86 0.0 1.0 0.00 0.00 0.00 76 1015.9
20260905133045 84 0 0.0 1.0 0.00 0.00 0.00 79 1016.0
20260905131544 80 0 0.0 2.0 0.00 0.00 0.00 85 1016.1
20260905130052 76 0 0.0 1.0 0.00 0.00 0.00 91 1016.0
20260905124552 75 0 0.0 1.0 0.00 0.00 0.00 93 1016.1
20260905123057 74 0 0.0 0.0 0.00 0.00 0.00 93 1016.0
20260905121552 73 0 0.0 0.0 0.00 0.00 0.00 93 1015.9
20260905120057 73 0 0.0 0.0 0.00 0.00 0.00 92 1015.7
20260905114559 72 0 0.0 0.0 0.00 0.00 0.00 92 1015.6
20260905113047 72 0 0.0 0.0 0.00 0.00 0.00 92 1015.5
20260905111545 73 0 0.0 0.0 0.00 0.00 0.00 92 1015.5
20260905110051 73 0 0.0 0.0 0.00 0.00 0.00 92 1015.3
20260905104551 73 0 0.0 0.0 0.00 0.00 0.00 91 1015.1
20260905103057 73 0 0.0 0.0 0.00 0.00 0.00 91 1015.1
20260905101559 73 0 0.0 0.0 0.00 0.00 0.00 91 1015.1
20260905100114 73 0 0.0 0.0 0.00 0.00 0.00 91 1015.1
20260905094549 73 0 0.0 1.0 0.00 0.00 0.00 91 1015.1
20260905093045 73 0 0.0 0.0 0.00 0.00 0.00 90 1014.9
20260905091557 74 0 0.0 0.0 0.00 0.00 0.00 90 1014.8
20260905090045 74 0 0.0 0.0 0.00 0.00 0.00 90 1014.9
20260905084550 74 0 0.0 0.0 0.00 0.00 0.00 90 1014.8
20260905083104 74 0 0.0 0.0 0.00 0.00 0.00 89 1015.0
20260905081550 74 0 0.0 0.0 0.00 0.00 0.00 89 1015.1
20260905080045 75 0 0.0 0.0 0.00 0.00 0.00 89 1014.9
20260905074548 75 240 0.0 1.0 0.00 0.00 0.00 89 1014.9
20260905073056 75 0 0.0 0.0 0.00 0.00 0.00 89 1014.9
20260905071551 75 0 0.0 0.0 0.00 0.00 0.00 88 1014.9
20260905070051 75 0 0.0 0.0 0.00 0.00 0.00 88 1015.1
20260905064602 75 0 0.0 0.0 0.00 0.00 0.00 88 1015.0
20260905063054 75 0 0.0 0.0 0.00 0.00 0.00 88 1015.2
20260905061550 75 0 0.0 0.0 0.00 0.00 0.00 87 1015.2
20260905060047 76 0 0.0 0.0 0.00 0.00 0.00 87 1015.3
20260905054703 76 0 0.0 0.0 0.00 0.00 0.00 86 1015.3
20260905053047 76 0 0.0 0.0 0.00 0.00 0.00 87 1015.3
20260905051543 77 0 0.0 0.0 0.00 0.00 0.00 85 1015.3
20260905050048 77 0 0.0 0.0 0.00 0.00 0.00 85 1015.3
20260905044551 78 0 0.0 0.0 0.00 0.00 0.00 84 1015.2
20260905043044 78 0 0.0 0.0 0.00 0.00 0.00 84 1015.4
20260905041551 78 0 0.0 0.0 0.00 0.00 0.00 83 1015.2
20260905040059 79 0 0.0 0.0 0.00 0.00 0.00 81 1015.1
20260905034554 79 0 0.0 0.0 0.00 0.00 0.00 81 1015.3
20260905033044 80 0 0.0 0.0 0.00 0.00 0.00 80 1015.3
20260905031555 80 0 0.0 0.0 0.00 0.00 0.00 79 1015.3
20260905030047 81 0 0.0 0.0 0.00 0.00 0.00 78 1015.4
20260905024556 82 0 0.0 0.0 0.00 0.00 0.00 76 1015.3
20260905023051 83 0 0.0 0.0 0.00 0.00 0.00 75 1015.3
20260905021545 84 0 0.0 0.0 0.00 0.00 0.00 73 1015.3
20260905020056 85 0 0.0 0.0 0.00 0.00 0.00 71 1015.3
20260905014545 86 0 0.0 1.0 0.00 0.00 0.00 69 1015.3
20260905013045 87 0 0.0 3.0 0.00 0.00 0.00 67 1015.3
20260905011546 86 4 0.0 0.0 0.00 0.00 0.00 69 1015.1
20260905010044 88 0 0.0 0.0 0.00 0.00 0.00 68 1015.2
20260905004548 89 0 0.0 1.0 0.00 0.00 0.00 65 1015.0
20260905003046 90 0 0.0 1.0 0.00 0.00 0.00 64 1014.7
20260905001551 91 0 0.0 1.0 0.00 0.00 0.00 62 1014.6
20260905000048 93 0 0.0 1.0 0.00 0.00 0.00 59 1014.3
20260904234547 94 98 0.0 2.0 0.00 0.00 0.00 57 1014.4
20260904233044 95 65 0.0 3.0 0.00 0.00 0.00 55 1014.2
20260904231600 95 105 0.0 1.0 0.00 0.00 0.00 55 1014.1
20260904230051 95 0 0.0 1.0 0.00 0.00 0.00 54 1014.0
20260904224545 97 0 0.0 1.0 0.00 0.00 0.00 49 1014.0
20260904223046 98 0 0.0 1.0 0.00 0.00 0.00 49 1014.0
20260904221548 97 0 0.0 1.0 0.00 0.00 0.00 51 1014.2
20260904220056 98 14 0.0 5.0 0.00 0.00 0.00 50 1014.1
20260904214548 97 0 0.0 3.0 0.00 0.00 0.00 50 1014.2
20260904213047 98 45 3.0 6.0 0.00 0.00 0.00 48 1014.3
20260904211553 98 302 2.0 7.0 0.00 0.00 0.00 47 1014.3
20260904210052 100 304 2.0 6.0 0.00 0.00 0.00 45 1014.4
20260904204551 99 71 3.0 7.0 0.00 0.00 0.00 47 1014.6
20260904203055 98 288 4.0 7.0 0.00 0.00 0.00 48 1014.7
20260904201548 97 276 1.0 5.0 0.00 0.00 0.00 49 1014.9
20260904200057 99 40 2.0 7.0 0.00 0.00 0.00 48 1015.3
20260904194553 99 281 3.0 6.0 0.00 0.00 0.00 46 1015.5
20260904193047 100 61 2.0 7.0 0.00 0.00 0.00 44 1015.8
20260904191543 100 196 2.0 5.0 0.00 0.00 0.00 46 1016.0
20260904190052 99 258 0.0 5.0 0.00 0.00 0.00 48 1016.2
20260904184545 98 141 1.0 4.0 0.00 0.00 0.00 50 1016.5
20260904183045 97 294 3.0 7.0 0.00 0.00 0.00 52 1016.6
20260904181552 96 212 1.0 5.0 0.00 0.00 0.00 54 1016.9
20260904180049 95 228 1.0 5.0 0.00 0.00 0.00 55 1017.1
20260904174545 95 307 3.0 7.0 0.00 0.00 0.00 59 1017.2
20260904173056 97 32 1.0 5.0 0.00 0.00 0.00 53 1017.4
20260904171550 97 84 2.0 5.0 0.00 0.00 0.00 55 1017.7
20260904170046 96 322 2.0 5.0 0.00 0.00 0.00 57 1017.7
20260904164545 95 20 3.0 7.0 0.00 0.00 0.00 57 1017.8
20260904163043 95 92 2.0 6.0 0.00 0.00 0.00 57 1017.9
20260904161559 94 342 1.0 3.0 0.00 0.00 0.00 59 1018.0
20260904160049 94 310 2.0 5.0 0.00 0.00 0.00 57 1018.0
20260904154547 93 0 1.0 3.0 0.00 0.00 0.00 60 1018.2
20260904153045 92 196 1.0 5.0 0.00 0.00 0.00 62 1018.1
20260904151552 92 185 1.0 3.0 0.00 0.00 0.00 62 1018.1
20260904150045 90 240 1.0 4.0 0.00 0.00 0.00 65 1018.1